GEFSSGP_500_meanwind_066.txt.gz
Wind_Speed
5 6 6 6 5 5 6 6 8 8 7 7 5 5 7 8 7 6 7 7 7 7 7 7 6 6 5 5 5 5 6 7 7 8 8 9 9 9 9 9 9 9 9 9 9 9 9 9 9
4 3 3 4 4 4 6 8 8 9 9 10 9 7 6 7 7 6 7 6 7 7 7 6 6 6 6 5 5 6 7 7 8 8 9 9 9 9 9 10 9 9 10 10 10 9 9 9 9
5 3 2 2 1 3 6 8 12 12 12 13 14 11 9 8 8 8 8 7 7 7 7 7 6 7 6 6 6 7 8 8 9 9 10 10 10 10 10 10 10 10 11 11 11 11 10 10 10
7 4 1 1 1 3 5 8 12 13 14 16 17 16 13 10 10 10 9 8 7 7 7 7 7 7 7 8 8 9 9 10 10 10 10 11 11 11 11 11 12 12 12 12 12 12 12 12 12
9 6 4 3 3 3 5 7 11 13 17 20 21 18 15 13 11 12 10 9 9 8 8 8 8 9 9 10 10 10 11 11 11 11 12 12 12 12 13 13 14 14 14 14 14 14 14 14 14
12 9 6 4 4 2 3 7 13 16 20 22 22 19 15 14 14 13 12 10 9 9 9 9 10 10 11 11 11 12 12 12 12 13 13 14 14 14 15 15 15 15 15 16 16 16 15 15 15
14 10 6 6 6 4 3 6 15 19 22 23 23 20 17 16 15 13 12 11 11 10 9 9 10 11 12 13 13 13 13 13 14 14 15 15 16 16 16 16 17 17 17 17 17 17 17 17 18
17 13 9 11 11 9 7 8 14 19 22 24 24 21 20 19 15 13 12 13 12 11 10 11 12 12 13 14 14 14 14 15 15 16 17 17 17 18 18 19 19 19 19 19 19 20 20 19 20
20 15 12 15 16 14 12 13 17 20 23 24 25 23 23 22 18 14 13 14 14 13 13 12 13 13 14 14 15 15 16 17 18 18 19 19 19 20 20 21 21 22 21 21 21 22 22 22 22
22 18 17 20 20 18 16 15 18 23 24 25 26 26 25 24 22 17 17 17 15 14 13 14 14 14 15 17 18 18 19 20 20 21 21 21 22 22 23 23 24 24 24 23 23 23 24 24 25
24 20 21 23 23 21 19 18 21 24 26 27 28 27 27 28 25 22 20 19 17 17 16 16 16 17 18 19 21 21 22 23 23 23 24 24 24 25 26 26 26 26 26 26 26 26 25 25 26
25 23 24 26 26 24 22 22 24 26 28 29 30 30 31 29 29 26 23 21 19 18 17 18 19 20 21 22 23 24 24 25 26 27 27 27 27 28 29 29 29 29 29 29 29 28 28 28 28
24 24 24 26 27 25 24 23 26 28 29 30 31 31 32 31 30 27 24 20 20 20 22 22 22 22 24 25 25 25 27 28 29 29 29 30 30 30 30 31 31 31 31 31 31 30 30 30 29
21 21 20 21 24 24 24 24 26 28 29 30 31 30 30 31 31 30 28 25 24 24 24 25 24 24 25 27 28 29 30 31 31 32 33 32 32 33 33 33 33 33 33 33 32 32 31 31 30
16 16 16 18 21 22 22 23 24 26 27 28 28 28 30 30 30 30 28 26 25 26 26 27 28 28 29 29 30 31 31 33 34 34 34 34 35 35 34 34 34 33 34 33 33 32 33 32 31
10 12 14 15 18 19 20 21 23 24 25 25 25 26 27 28 28 27 27 26 26 27 27 28 28 29 30 31 32 33 34 35 36 36 36 37 37 37 36 35 35 35 35 34 34 34 33 32 31
8 9 11 13 15 16 18 20 20 22 23 24 23 24 24 25 25 25 25 25 25 26 27 27 28 29 30 31 33 34 35 36 38 39 39 39 40 39 38 36 37 36 36 35 35 34 33 32 31
7 8 9 11 13 15 18 19 20 22 22 23 22 22 23 23 23 22 23 23 24 25 26 27 29 29 30 32 33 35 37 38 39 40 40 41 40 40 39 38 37 37 36 35 35 34 34 33 31
7 6 6 9 12 16 18 20 21 22 22 22 21 21 20 19 20 20 21 22 23 24 26 28 29 30 31 32 34 36 38 39 40 41 41 41 41 41 41 40 39 38 36 35 35 35 35 34 32
7 8 8 9 9 13 16 18 19 21 21 19 19 19 16 16 16 18 19 21 22 24 26 27 28 30 32 34 35 37 39 40 41 42 42 43 43 42 42 41 40 39 38 37 36 36 35 34 33
7 8 9 9 9 11 15 18 19 17 19 17 15 13 11 11 13 15 17 19 20 22 24 26 28 31 33 34 36 37 39 41 42 43 43 43 43 42 42 41 40 40 39 38 38 37 36 36 35
6 7 7 9 11 13 13 13 13 12 11 10 9 9 8 9 11 13 15 18 20 22 24 27 29 31 33 35 37 38 40 41 42 43 43 43 42 42 41 40 40 40 39 39 38 38 37 37 36
6 8 8 8 9 10 10 9 7 6 7 7 7 6 5 8 10 13 15 18 20 22 24 26 28 31 33 35 36 38 39 40 41 42 42 42 41 41 41 40 38 38 38 38 37 37 37 36 37
8 8 8 8 9 10 8 7 4 3 5 5 5 6 8 10 12 14 17 19 21 23 25 28 30 31 33 35 36 37 38 39 39 40 40 40 39 39 39 39 37 37 37 37 37 37 37 37 37
8 9 8 8 9 11 11 11 10 9 8 8 8 10 11 12 14 17 20 23 25 27 29 31 32 34 35 36 37 38 38 38 39 38 38 38 38 37 38 38 37 37 36 36 36 36 37 37 38
7 8 8 9 9 9 10 11 11 10 9 9 11 12 14 16 19 22 24 26 29 31 33 34 36 37 38 38 39 39 39 39 39 39 39 39 39 38 38 38 38 38 37 37 37 37 37 37 38
7 7 8 8 8 8 9 10 12 11 11 13 14 16 18 21 23 26 28 30 32 35 36 38 39 39 39 39 39 39 39 39 39 39 39 40 40 40 40 40 40 40 40 39 39 39 39 38 39
8 8 8 8 9 9 10 12 15 14 15 16 17 20 22 24 27 29 31 33 35 37 39 40 41 41 41 40 40 39 39 39 40 40 40 40 40 41 42 42 43 43 43 43 43 42 42 41 41
7 8 9 9 11 12 14 16 17 17 18 20 22 24 26 28 29 31 33 35 38 39 41 42 42 42 41 41 41 40 40 41 41 41 41 41 42 42 43 43 45 46 46 47 46 46 46 45 45
6 9 10 11 12 14 17 18 19 21 23 24 25 26 27 28 30 32 35 38 39 40 41 42 42 41 41 41 41 41 41 42 42 42 42 42 42 43 43 44 45 46 47 48 48 48 48 48 48

GEFSSGP_500_meanwind_072.txt.gz
Wind_Speed
2 1 2 2 1 0 1 2 3 5 7 8 8 9 10 9 9 8 8 7 7 6 6 5 5 4 5 5 5 5 5 5 5 5 4 4 5 5 5 4 5 5 5 5 6 6 7 7 7
5 4 5 5 4 3 2 1 1 2 4 5 7 8 9 9 9 9 8 8 7 6 6 5 5 5 5 5 5 5 5 4 5 4 4 4 4 4 4 4 4 4 5 5 5 5 5 5 5
7 6 7 8 8 6 6 4 3 2 3 4 6 7 9 9 9 9 9 8 8 7 6 5 5 5 5 5 5 5 5 5 5 5 5 5 5 5 6 5 6 6 6 6 6 6 6 6 5
9 9 9 10 10 10 9 8 7 5 4 4 6 8 9 9 10 10 10 8 9 8 7 6 5 6 5 5 6 6 6 6 6 7 7 7 7 7 7 7 8 8 8 9 9 8 8 8 8
11 11 12 13 14 13 12 12 10 8 6 6 7 7 9 10 11 11 10 9 10 9 7 7 7 7 6 6 6 7 7 7 8 8 8 8 9 9 9 9 9 10 10 11 11 11 11 11 10
14 13 15 16 17 17 17 15 13 11 9 9 9 9 9 10 11 12 12 10 10 10 9 8 8 8 8 8 8 8 9 9 9 10 10 10 10 11 11 11 12 12 13 13 13 13 13 13 13
17 16 16 19 20 20 20 17 15 14 12 11 11 10 10 11 12 13 13 12 11 11 11 11 11 10 10 9 9 10 10 11 11 11 11 12 12 13 13 14 15 15 15 15 15 15 15 15 15
20 18 19 21 23 23 23 21 19 17 15 14 13 12 12 13 12 13 13 13 13 14 13 13 13 13 12 12 12 12 12 13 13 13 13 14 15 16 16 16 17 17 17 17 18 18 17 17 16
23 21 21 23 26 26 26 24 22 21 18 15 14 14 14 13 14 14 15 15 16 16 15 15 14 14 15 16 16 15 15 15 15 16 16 16 17 18 18 18 19 19 20 20 20 19 19 19 19
26 24 24 26 29 30 29 27 25 22 19 17 16 16 15 15 16 17 17 18 18 18 17 16 17 18 19 19 20 20 19 19 19 19 19 19 19 20 20 21 21 22 22 22 22 22 21 21 22
27 26 27 29 31 32 31 30 28 25 23 20 18 17 16 16 17 19 19 19 19 18 17 18 19 21 21 21 22 22 22 22 21 22 22 22 22 22 23 24 25 25 25 25 25 24 24 24 24
26 26 27 29 30 31 32 31 30 27 24 23 21 19 19 19 20 21 22 21 20 20 20 19 21 23 23 23 23 22 23 24 23 23 24 24 24 25 25 25 25 26 26 26 27 26 25 25 26
23 24 25 27 30 31 31 31 31 29 27 25 24 22 22 22 23 23 24 23 21 21 21 20 22 23 25 24 24 24 24 24 24 25 24 25 26 26 27 27 27 27 27 28 27 27 26 27 28
18 19 21 25 28 29 30 31 31 30 28 27 26 25 24 25 24 23 23 23 21 21 20 21 22 23 24 23 24 24 24 24 24 26 27 27 28 28 28 28 28 29 29 29 28 27 29 29 29
12 14 17 20 23 26 28 29 29 28 29 28 27 26 26 25 25 23 22 21 21 20 21 22 22 22 23 23 23 24 24 26 27 27 27 28 28 29 28 29 29 29 30 30 30 29 30 30 30
9 10 12 15 18 21 23 24 25 26 27 27 27 26 25 24 23 21 20 20 20 20 21 21 21 21 22 23 24 25 26 27 27 27 28 29 29 29 30 30 31 31 32 32 31 31 31 31 31
8 9 10 12 15 18 20 21 22 23 24 24 25 24 24 24 23 21 21 20 20 20 20 21 21 21 22 23 24 24 26 27 28 29 29 30 31 31 32 33 33 34 34 33 32 33 32 32 32
7 8 9 10 12 15 18 19 20 21 22 22 22 22 23 22 22 21 20 20 19 18 19 20 20 21 22 23 24 26 27 29 30 31 32 33 34 34 35 35 35 35 35 35 34 35 34 34 34
7 7 8 9 11 13 14 17 19 21 21 22 22 22 22 22 21 19 19 19 19 19 19 20 21 22 23 25 26 28 29 30 32 33 34 35 36 36 37 37 37 37 37 37 37 37 36 36 36
7 7 7 7 8 10 12 15 17 19 20 19 19 20 19 19 17 18 19 17 18 19 19 21 22 24 25 27 29 30 32 33 34 36 37 37 38 38 38 38 38 38 38 38 38 38 38 37 37
6 5 5 5 7 8 10 11 13 15 16 16 17 17 16 17 18 17 17 17 17 18 20 22 24 26 27 29 30 32 33 34 35 36 37 37 38 38 38 38 38 39 39 39 39 39 38 38 38
6 5 5 5 6 6 7 8 8 9 11 12 13 13 14 15 15 15 15 16 18 19 22 23 25 27 28 30 31 33 34 35 36 36 37 37 37 37 37 37 37 37 37 37 38 38 38 38 38
6 5 4 4 4 4 4 5 4 4 4 7 8 9 10 11 12 12 14 16 18 20 21 23 25 26 28 30 31 33 34 34 35 35 35 35 36 36 36 36 35 35 35 35 36 36 37 37 37
6 4 3 3 3 2 2 3 4 4 4 5 6 7 9 10 11 12 13 15 17 19 21 23 25 27 28 30 31 32 32 32 33 33 33 34 34 34 35 35 35 35 36 36 36 36 37 37 37
5 4 3 2 2 2 3 4 4 4 3 4 5 7 8 9 11 12 14 16 18 20 22 24 26 28 29 30 31 31 32 32 32 33 33 33 34 35 35 36 36 36 37 37 37 37 37 37 37
6 5 4 4 4 4 4 5 5 5 5 5 6 7 9 10 12 13 15 17 19 21 24 26 27 29 30 31 31 31 32 32 33 33 34 34 35 36 36 37 37 38 37 38 38 38 38 37 37
5 5 5 5 5 5 4 5 6 6 6 7 8 9 10 12 13 14 16 18 21 23 25 27 29 30 31 31 32 32 32 33 33 34 35 36 36 36 37 38 38 39 39 39 38 38 39 39 38
6 7 6 5 5 4 4 4 6 7 7 8 9 10 11 11 13 15 18 20 23 25 27 29 31 31 32 32 33 33 34 34 35 36 37 37 37 38 38 39 39 39 39 39 38 38 39 40 40
7 7 7 6 6 5 4 4 6 7 8 10 10 11 12 13 15 18 20 23 25 27 30 31 32 33 33 34 34 35 36 36 37 38 38 38 38 39 39 39 39 39 38 38 39 39 39 40 41
6 7 6 5 5 5 6 7 8 9 10 11 12 13 14 16 18 20 23 25 27 29 31 33 34 34 35 35 36 37 38 39 39 40 40 40 40 40 40 39 39 39 39 39 39 39 40 40 41

GEFSSGP_500_meanwind_078.txt.gz
Wind_Speed
5 4 4 3 3 3 3 3 2 2 0 1 2 2 2 2 2 2 2 2 2 1 1 1 1 2 3 3 4 3 3 3 2 2 2 2 2 2 2 2 1 1 1 1 1 1 1 1 2
6 6 7 7 6 5 7 5 5 3 2 1 1 1 1 2 2 2 2 1 1 1 1 1 2 4 4 5 5 5 5 5 4 3 3 3 3 3 2 2 2 2 2 2 2 2 2 1 1
8 9 9 10 9 10 10 8 7 5 4 4 3 2 2 1 2 2 2 1 1 2 3 3 4 5 6 6 6 7 6 6 6 5 5 5 5 4 4 4 4 4 4 5 5 5 5 4 4
11 12 12 13 14 14 13 12 11 9 7 6 5 4 3 3 3 3 3 3 3 4 4 5 6 7 7 7 8 8 8 8 8 8 7 7 6 6 6 6 6 6 6 6 6 7 7 7 7
14 14 15 16 18 17 15 14 13 12 11 9 8 7 6 5 4 4 4 4 4 5 6 6 7 8 9 9 9 10 10 10 10 10 10 9 9 8 8 8 7 7 7 8 8 8 9 9 9
17 17 17 19 21 20 19 17 16 15 14 12 10 9 8 7 6 5 4 5 5 6 7 8 10 11 11 12 12 12 13 13 13 13 13 12 11 10 10 10 9 9 9 10 10 10 10 10 10
19 20 21 22 23 24 22 20 19 18 17 15 13 12 11 9 7 6 6 6 6 8 9 11 12 13 13 14 14 14 15 15 15 15 15 14 14 13 13 12 12 12 12 12 12 12 12 12 12
22 22 23 24 25 27 25 24 22 21 20 17 16 15 14 11 10 9 9 8 9 10 11 13 14 15 15 15 16 17 17 17 18 18 18 17 17 17 16 16 15 15 15 15 14 14 14 14 14
23 24 25 27 28 29 28 26 25 23 22 20 19 17 16 13 12 12 11 12 12 12 14 15 16 16 17 18 19 19 19 19 21 21 22 22 21 21 19 18 18 17 17 17 17 16 16 17 17
23 24 26 27 28 29 29 27 25 24 24 22 21 19 17 16 14 13 14 14 14 15 17 18 18 19 19 20 20 21 21 21 21 22 23 23 22 22 22 22 21 20 20 19 19 19 19 18 18
19 21 24 26 27 27 27 26 25 25 24 23 22 21 20 19 17 16 16 17 18 18 19 19 19 20 20 20 21 22 22 23 22 23 24 24 23 23 24 24 24 24 23 23 23 22 21 20 20
15 16 19 22 24 25 25 25 24 23 24 23 22 22 22 21 20 19 20 20 20 20 21 21 21 20 20 21 22 23 23 24 24 24 24 23 23 23 24 26 26 25 24 24 24 23 22 21 22
10 11 13 16 19 21 22 22 23 22 22 22 22 22 22 22 22 22 22 22 22 22 22 21 20 21 20 21 22 22 24 24 24 24 23 23 23 23 25 26 27 27 26 25 25 24 24 24 23
8 8 9 10 13 16 18 19 20 21 22 21 21 21 22 21 22 22 22 22 23 23 22 21 21 22 21 21 22 23 23 22 23 24 25 24 23 24 24 24 25 25 25 25 26 25 26 26 26
9 9 8 8 9 11 14 17 19 20 21 21 21 21 22 21 21 22 22 23 22 21 22 21 21 22 21 21 21 20 21 20 20 21 22 22 22 23 25 25 24 25 25 25 26 26 26 27 27
11 10 10 10 9 8 9 13 17 18 19 20 20 21 22 20 20 21 21 22 21 21 21 20 20 19 18 19 19 19 19 20 20 20 22 22 23 24 25 26 25 25 26 26 26 27 28 28 28
11 9 9 12 9 8 9 12 14 16 17 18 19 20 20 20 20 20 20 20 20 19 19 19 18 18 17 17 18 19 20 20 21 22 23 24 25 25 25 26 26 26 27 28 28 28 29 29 29
8 8 9 10 9 8 8 10 11 13 15 16 17 18 18 19 18 19 19 19 18 17 17 17 17 17 17 17 18 18 19 20 21 23 24 25 26 27 27 27 27 28 29 29 29 30 31 32 32
8 7 8 8 7 6 7 9 10 13 14 15 15 15 16 17 17 17 17 15 15 16 16 16 17 17 17 18 19 19 20 21 23 24 25 26 26 27 28 28 28 29 30 30 31 31 32 33 33
8 7 8 8 7 7 7 8 10 11 12 13 13 13 13 14 15 14 13 13 14 14 15 15 16 17 18 19 19 20 22 23 24 26 26 27 27 28 28 29 29 29 30 31 31 32 33 33 34
7 7 7 7 7 7 7 7 8 8 9 10 11 12 13 14 13 12 12 13 13 14 15 17 17 17 18 19 20 22 23 24 25 27 27 28 28 29 29 29 29 30 30 30 31 32 32 33 34
7 6 7 7 7 7 6 7 6 5 6 7 9 10 10 11 10 11 12 13 13 15 16 17 17 17 18 20 21 23 24 25 26 27 28 28 29 29 29 29 30 30 31 31 31 32 33 33 34
7 7 7 7 7 6 6 6 6 6 6 7 7 7 8 9 10 11 11 12 13 15 16 16 17 18 20 21 23 23 24 25 26 27 27 28 28 28 29 29 30 30 31 31 32 33 34 34 35
7 7 7 7 6 6 7 7 8 7 6 5 6 6 7 8 9 10 11 13 14 15 16 17 19 20 21 22 23 23 24 24 25 26 27 27 28 28 28 29 30 31 32 32 33 34 35 35 36
7 6 6 7 7 7 7 7 8 8 7 7 7 7 7 8 10 11 13 14 14 16 17 18 20 21 22 22 23 23 24 25 26 27 27 27 28 29 29 30 31 32 33 34 34 35 36 37 37
7 5 4 4 5 8 8 8 9 9 9 8 8 7 8 9 11 12 13 14 15 16 18 19 20 21 22 22 23 23 24 26 26 27 27 28 29 30 30 31 32 33 34 35 35 36 37 37 38
7 6 5 5 6 7 8 9 9 9 9 8 8 9 10 11 12 13 14 15 16 17 19 19 21 22 22 23 23 24 25 27 27 28 28 29 30 31 32 33 34 35 36 36 37 37 38 38 39
8 7 5 3 4 5 9 9 9 9 9 9 9 10 11 12 12 13 14 15 17 18 19 20 21 21 22 23 24 25 26 27 28 29 30 31 32 33 34 35 36 37 37 37 37 38 38 39 39
8 6 5 4 5 2 5 9 9 9 9 10 10 10 11 11 12 13 15 16 17 18 19 20 21 22 23 24 25 26 28 29 30 31 33 34 35 36 36 37 37 38 38 38 38 38 39 39 39
7 6 6 5 6 5 4 10 10 9 10 10 10 11 11 12 12 14 15 16 17 18 19 21 22 23 24 25 27 28 30 32 33 35 36 37 38 38 39 39 39 38 38 38 38 39 38 38 38

GEFSSGP_500_meanwind_084.txt.gz
Wind_Speed
4 4 4 4 5 6 2 5 2 6 7 5 5 6 7 5 7 6 5 5 4 4 4 4 4 3 4 4 5 6 6 6 6 6 7 7 6 6 6 5 5 4 4 3 3 3 3 3 3
6 6 6 6 8 10 6 3 4 8 7 6 7 8 8 7 7 7 6 5 4 5 5 5 5 5 5 5 7 7 8 7 8 8 8 8 8 8 8 7 7 6 6 6 5 5 4 4 4
8 8 8 8 9 12 11 7 9 8 9 9 10 10 10 9 8 7 7 6 5 6 6 6 6 6 7 7 8 9 9 9 9 9 10 10 10 10 10 9 9 9 8 8 7 7 6 6 6
11 11 10 10 9 10 11 11 13 11 11 11 13 12 11 10 9 9 8 7 7 7 7 8 8 8 8 9 9 10 11 11 11 11 11 12 12 12 12 12 11 11 10 10 9 9 9 8 8
14 13 12 12 10 13 15 16 15 13 14 14 14 14 13 11 10 10 9 8 7 7 8 8 8 9 10 10 11 12 12 13 13 13 13 13 14 14 14 14 13 13 12 12 11 11 11 11 11
16 15 13 11 14 15 16 18 18 18 16 17 17 15 12 11 10 10 9 9 8 7 7 8 9 10 11 12 13 13 13 14 14 15 15 15 16 16 16 15 15 14 14 14 14 14 13 13 13
17 17 15 13 16 18 18 21 20 22 19 17 19 19 15 11 10 9 9 9 8 7 9 10 11 12 12 13 14 14 15 15 16 16 17 17 18 19 19 18 17 17 16 17 17 16 15 15 14
17 17 15 13 15 17 20 24 23 23 23 20 21 22 14 12 9 8 8 9 8 9 11 11 13 14 14 15 16 16 17 17 18 18 18 18 19 20 20 20 20 20 19 19 19 18 17 17 16
16 15 13 13 16 18 22 24 24 24 25 25 24 24 18 13 10 9 10 10 10 10 12 12 14 15 16 17 17 18 19 19 19 20 21 21 21 21 20 20 21 21 21 21 21 20 20 19 18
13 13 13 19 23 24 25 25 24 23 23 23 25 25 20 15 13 13 12 12 12 13 13 14 14 16 18 19 20 20 21 21 21 21 23 23 23 22 21 21 22 21 21 21 22 22 22 21 21
11 14 18 22 24 26 26 25 25 25 24 22 20 20 16 15 15 15 14 13 14 14 15 15 15 18 20 20 21 21 22 21 22 23 24 24 24 24 22 23 23 22 22 21 22 23 23 23 23
10 12 15 17 20 21 22 24 24 25 26 23 17 17 16 17 18 16 16 15 16 16 17 17 19 20 21 22 22 22 23 23 23 24 25 24 24 23 24 23 23 22 21 20 20 22 24 25 24
9 10 12 13 14 16 18 20 23 24 23 24 18 15 16 18 19 19 18 16 16 17 19 19 20 22 22 23 22 23 23 23 23 22 22 23 22 22 23 22 22 21 20 20 21 23 24 25 26
7 9 10 10 12 13 15 18 21 23 22 19 17 17 17 18 19 19 17 16 16 17 19 20 21 22 22 23 22 22 22 22 22 20 19 21 22 21 21 21 21 21 21 22 23 23 23 23 25
7 9 10 10 12 12 14 18 18 16 18 18 16 16 18 17 19 18 17 17 16 18 19 20 21 22 22 22 21 21 21 21 20 20 19 20 21 21 22 21 21 22 23 24 24 24 24 23 23
10 12 13 13 12 12 17 16 13 14 14 16 17 17 17 18 18 17 17 17 17 19 20 21 20 21 21 20 20 21 21 21 20 19 20 21 22 22 22 23 23 23 23 24 25 25 24 24 24
13 15 15 14 15 14 16 15 14 14 13 14 16 16 16 17 17 16 15 16 16 18 20 20 20 20 20 20 20 20 20 20 20 20 20 21 22 22 23 23 23 23 24 24 24 24 24 24 25
13 15 16 15 15 15 15 15 11 8 10 11 13 14 14 14 15 15 14 15 16 18 18 18 18 19 19 19 19 19 19 19 20 20 20 21 21 22 23 24 23 24 24 24 24 25 25 26 26
10 12 14 14 14 14 14 14 12 9 6 9 10 11 12 12 13 14 14 15 16 17 17 17 17 18 18 18 19 19 19 19 20 20 20 21 21 22 23 24 24 24 24 25 25 25 26 26 27
9 12 14 12 12 11 11 11 11 9 3 4 7 10 11 11 11 12 13 13 15 15 16 16 17 17 17 17 18 18 19 20 20 20 21 21 22 22 23 23 24 25 25 25 25 26 26 27 27
10 12 13 12 11 10 8 8 8 6 3 4 6 8 9 10 10 10 11 12 13 14 14 14 15 16 17 17 17 18 19 19 20 20 20 21 22 22 23 24 24 25 25 25 25 26 26 27 28
11 11 11 10 10 10 10 10 8 6 6 4 5 6 7 8 9 10 11 11 12 12 13 14 15 15 16 16 16 18 19 19 20 20 21 21 22 23 23 24 25 25 25 26 26 27 27 28 28
11 10 8 7 8 7 7 8 8 8 8 6 5 4 5 6 7 8 8 10 11 12 12 13 14 15 16 17 18 18 19 20 20 21 22 23 23 24 24 24 25 26 26 27 27 28 29 29 30
10 9 9 10 8 6 6 7 9 9 9 7 6 5 5 6 6 6 7 8 10 11 12 13 14 15 16 17 18 19 20 21 21 22 23 24 25 25 25 25 26 27 28 28 29 30 30 31 32
10 9 12 13 12 5 7 7 9 10 10 10 7 6 6 5 5 5 7 8 10 11 13 13 14 15 16 17 18 20 21 22 23 24 25 26 27 27 27 27 28 29 29 30 31 32 33 33 34
10 8 9 11 12 9 6 7 10 11 10 9 8 7 6 6 6 7 8 9 11 12 13 14 14 15 17 18 20 21 22 23 24 25 26 27 28 29 30 31 31 32 33 34 34 35 35 36 36
9 7 8 10 10 8 5 6 9 10 11 10 10 9 8 8 8 9 9 10 11 12 13 14 16 17 18 19 20 22 23 24 25 27 28 29 30 32 32 33 34 35 35 36 36 37 38 38 38
8 7 7 7 8 11 9 5 9 12 13 12 12 11 10 10 10 11 12 12 13 13 14 16 17 18 20 21 22 23 23 25 26 28 30 31 32 33 34 35 36 36 37 38 38 38 39 39 39
9 7 7 8 8 10 12 9 11 13 15 15 14 13 12 12 12 12 13 14 15 15 16 16 18 19 20 21 22 24 25 27 28 30 31 32 33 34 35 36 37 37 38 38 38 38 39 39 39
11 9 9 8 7 8 11 13 13 14 17 17 16 15 14 14 14 15 14 15 16 16 17 17 18 19 20 21 23 24 26 28 30 32 33 34 35 36 37 37 38 38 39 38 38 38 37 37 37

GEFSSGP_500_meanwind_090.txt.gz
Wind_Speed
6 6 5 5 5 7 8 7 4 2 3 4 5 7 7 4 2 2 2 2 2 1 1 0 0 0 0 0 1 2 4 5 6 6 6 7 7 7 7 7 7 7 7 7 7 6 6 5 5
9 9 8 7 7 7 8 7 5 6 6 5 5 7 8 6 3 4 4 3 3 2 2 1 1 1 1 1 2 3 3 5 5 6 7 7 7 7 7 8 8 8 8 8 8 8 7 6 6
11 11 10 9 8 8 8 7 7 9 8 7 7 10 10 8 5 5 5 4 3 3 2 2 2 2 2 2 3 4 4 5 6 6 7 7 8 8 8 8 9 9 9 9 9 9 8 8 7
13 12 12 10 10 9 10 9 9 12 12 11 11 12 12 9 7 6 5 5 4 3 3 4 4 4 3 3 4 5 5 6 6 7 8 7 8 8 9 9 10 11 11 10 10 10 10 9 8
14 13 12 11 11 12 11 10 10 15 17 15 15 16 14 10 8 7 6 5 5 4 4 4 4 5 4 4 5 6 6 6 7 7 8 8 8 9 10 10 11 12 12 12 12 12 12 11 10
15 13 11 10 11 12 11 10 12 16 19 19 19 20 16 12 9 8 7 6 6 5 5 5 5 4 4 5 6 7 7 8 8 8 9 10 10 11 11 12 12 13 13 14 14 14 14 13 11
15 13 12 11 10 11 11 13 14 17 20 23 23 21 19 14 9 9 8 8 7 7 6 5 5 4 5 5 6 7 8 9 10 11 11 12 12 13 13 14 14 14 15 15 16 16 16 15 14
14 13 13 12 13 13 13 14 17 20 23 25 24 22 18 14 10 9 10 9 8 7 7 6 5 4 5 6 7 8 10 11 12 12 13 13 13 14 15 15 16 16 16 16 17 17 17 17 16
13 12 13 14 15 15 15 16 19 21 25 26 25 22 18 15 13 11 10 9 9 8 7 5 4 5 6 7 8 9 10 11 13 14 14 14 15 16 17 17 17 17 17 18 18 18 19 19 18
12 12 13 14 16 16 17 18 20 22 24 25 24 23 21 17 15 13 12 11 10 9 7 5 5 5 7 8 9 10 12 13 14 14 15 15 16 17 17 18 18 18 18 18 19 19 19 20 20
10 11 12 14 15 15 17 19 21 23 25 26 24 21 18 18 16 14 13 12 11 9 7 5 5 7 8 9 10 12 14 15 16 16 16 16 16 16 17 18 18 19 19 19 18 19 19 20 21
7 8 10 11 12 14 16 18 21 24 26 26 25 23 20 18 15 14 15 12 10 9 7 6 7 8 9 10 11 13 14 16 16 16 16 16 16 15 16 17 16 17 18 18 18 19 19 19 20
6 7 8 9 10 13 15 18 20 23 24 24 22 21 19 17 17 17 16 13 11 9 8 9 9 10 10 12 12 13 14 15 15 15 15 15 15 15 15 16 16 17 18 17 17 17 17 18 19
4 5 7 10 11 13 15 16 18 20 22 21 21 20 18 16 16 16 14 10 9 9 8 8 8 9 10 11 11 12 13 14 14 15 14 14 15 15 14 15 15 16 17 17 17 17 17 18 19
5 6 8 10 12 14 16 16 18 17 18 16 17 17 16 16 14 12 10 10 9 8 8 8 8 9 10 11 11 12 13 14 14 14 14 14 14 14 14 14 14 14 15 16 17 17 18 18 19
6 7 9 12 14 15 16 17 18 18 15 15 14 11 10 11 10 10 9 8 9 7 7 7 8 9 10 12 12 12 12 13 13 13 13 13 13 13 13 14 14 14 15 16 17 17 18 19 20
8 11 12 14 15 16 18 17 17 17 14 11 8 7 7 8 8 7 8 7 6 6 5 6 8 10 11 12 12 11 11 12 12 12 12 12 12 13 13 14 14 15 16 17 17 18 19 19 20
11 14 15 16 16 17 18 16 14 14 11 9 7 5 5 7 7 5 6 5 5 5 5 7 9 9 10 10 10 10 10 11 12 12 12 13 13 13 13 13 14 15 16 16 17 18 18 19 20
13 14 16 16 16 17 17 15 14 13 9 6 2 2 4 5 5 6 5 5 4 4 5 6 7 7 8 8 8 9 10 10 10 10 11 12 12 13 13 14 14 15 16 16 17 18 18 19 19
12 14 15 16 16 16 15 13 12 12 9 6 3 1 3 4 6 7 5 4 3 3 5 5 6 6 7 8 8 9 9 10 10 10 11 12 13 13 13 14 14 15 15 16 17 18 18 18 19
12 13 14 15 16 15 13 11 10 10 9 7 6 4 5 4 4 4 3 2 2 3 4 5 6 6 7 7 8 9 9 9 10 10 11 12 12 12 13 14 15 15 16 17 17 18 19 20 20
13 13 13 13 14 14 10 9 9 9 9 8 7 6 5 4 3 3 1 2 2 3 3 4 5 6 6 6 7 8 9 9 10 10 11 12 12 13 14 16 16 17 18 19 19 20 21 22 23
12 12 11 11 11 10 8 7 7 7 8 8 8 6 5 4 3 2 2 1 2 2 3 4 4 4 5 6 7 8 9 10 11 11 12 12 14 15 17 18 19 20 21 22 22 23 23 24 25
11 10 10 8 8 7 7 5 6 6 7 7 8 7 5 4 3 3 2 1 0 1 2 2 3 4 5 7 8 8 9 10 11 12 13 15 16 17 19 20 21 22 23 24 24 25 26 27 27
10 9 9 8 7 7 6 4 4 5 6 7 7 6 5 4 3 2 2 2 1 1 2 3 3 5 6 7 8 9 10 11 13 14 15 17 18 19 21 22 22 23 24 25 26 27 28 29 29
9 9 9 9 9 7 5 4 2 4 6 7 7 6 5 4 3 2 2 1 0 1 2 3 4 5 6 7 9 10 11 12 14 15 17 18 20 21 22 23 24 25 26 26 27 28 29 30 31
9 9 10 10 10 8 5 2 1 2 4 6 6 6 5 5 4 3 2 2 1 1 2 3 5 5 6 8 9 10 12 13 15 17 18 20 22 23 25 26 27 27 28 29 29 30 31 31 31
10 10 10 10 10 8 6 4 3 2 2 4 4 5 5 4 4 3 2 1 0 1 3 4 4 5 7 8 10 11 13 14 16 18 20 22 23 25 27 28 29 30 30 31 31 32 32 32 32
11 11 11 10 11 11 10 7 6 5 4 3 3 4 4 4 3 3 2 1 1 2 3 5 6 7 9 10 11 13 14 16 18 19 22 24 26 27 29 30 31 32 33 33 33 33 33 33 33
13 12 12 12 11 11 11 9 7 6 5 4 4 4 3 3 3 2 2 3 3 4 5 6 8 9 11 12 14 15 16 18 20 22 24 26 27 29 30 32 33 33 34 35 35 35 35 34 34

GEFSSGP_500_meanwind_096.txt.gz
Wind_Speed
8 8 8 9 10 10 10 11 12 12 10 7 6 4 1 1 1 1 2 2 3 4 4 3 2 2 1 2 2 3 3 3 3 4 4 4 4 4 4 5 5 6 6 6 6 6 6 6 6
10 10 10 11 12 12 12 12 13 13 11 8 7 5 4 4 2 3 3 3 4 5 6 5 4 3 2 1 1 1 2 2 2 3 3 4 4 4 4 4 5 5 5 5 5 5 5 5 5
12 11 12 13 14 14 14 14 14 13 13 11 10 9 7 6 4 5 4 5 5 6 7 7 6 5 4 2 1 0 1 2 3 3 4 4 4 5 5 5 5 5 5 5 5 5 5 4 4
13 13 13 14 16 16 15 15 16 15 14 12 10 9 9 8 6 7 6 7 7 8 8 8 7 6 5 4 3 2 2 3 3 4 4 5 6 6 6 6 6 6 6 6 6 6 6 5 5
14 14 15 16 17 18 18 17 16 16 16 14 12 11 10 9 9 8 8 9 10 11 10 10 9 8 6 5 4 3 3 4 4 5 6 6 7 8 8 8 8 8 8 8 8 7 7 7 6
14 15 16 16 18 18 19 18 17 17 16 15 13 13 12 11 11 10 9 11 13 12 11 10 9 9 7 6 5 4 4 4 5 6 6 7 8 9 10 11 11 11 10 10 10 9 9 8 8
15 15 16 17 18 19 19 19 18 18 18 16 16 16 15 13 11 11 11 12 13 13 12 11 9 9 8 7 6 5 5 5 6 7 8 8 9 10 11 12 12 12 13 13 12 12 10 10 9
15 15 16 17 18 19 19 19 19 19 19 18 18 17 16 13 12 12 12 13 14 14 12 11 10 9 8 8 7 6 6 6 7 8 9 9 10 11 12 13 14 14 14 15 15 14 12 11 10
14 14 15 16 17 18 19 20 20 21 20 19 19 18 16 14 12 13 13 14 15 15 13 11 10 9 9 8 7 6 6 7 8 9 10 10 11 12 13 14 15 15 16 16 16 15 14 13 12
13 14 15 15 16 17 18 20 21 20 20 21 20 19 17 15 13 13 14 14 14 15 13 12 10 10 9 8 8 7 7 8 8 10 11 11 12 13 13 14 15 16 17 17 17 16 15 15 14
11 12 13 13 14 16 17 18 20 21 21 21 21 20 18 16 14 13 14 14 14 15 14 13 12 11 10 10 9 8 8 9 9 11 11 12 13 13 13 14 16 16 16 16 16 16 16 16 15
10 10 11 12 13 14 16 18 19 20 21 21 20 19 17 16 16 15 15 15 15 15 14 14 13 12 11 10 10 9 9 9 11 11 11 12 13 13 14 14 15 16 16 16 16 16 16 16 16
9 9 10 10 11 13 15 17 19 20 20 19 18 17 16 15 15 16 16 16 15 15 14 13 14 13 11 10 10 9 10 11 11 12 12 12 13 14 15 15 14 15 15 15 15 15 16 16 16
9 9 10 10 11 13 14 16 17 18 19 17 16 15 15 14 14 15 16 16 16 15 14 13 13 12 11 10 8 8 9 10 11 11 12 12 13 14 14 15 14 14 14 14 14 15 15 15 15
8 9 10 12 12 13 14 16 17 17 17 16 14 13 12 12 13 15 14 15 16 16 15 14 13 12 11 10 8 8 9 11 11 11 11 12 13 13 13 14 14 14 14 14 14 15 14 15 14
8 9 10 11 12 13 15 16 17 17 16 14 11 10 10 10 13 15 14 14 15 15 15 14 14 12 10 9 8 8 9 10 10 10 11 11 12 12 12 12 12 13 14 14 14 14 15 15 16
8 9 10 11 12 13 14 16 17 16 14 11 7 6 8 9 11 13 14 14 14 15 15 14 12 11 10 8 7 7 7 7 8 9 10 10 10 10 10 11 12 12 13 14 14 15 15 16 16
9 10 10 11 12 13 14 15 16 15 13 9 5 4 6 9 11 12 13 13 14 15 15 13 10 9 7 6 6 5 5 6 7 8 8 8 9 10 10 11 11 12 12 13 14 14 15 16 17
9 11 11 11 13 14 14 14 14 13 11 8 4 2 4 7 9 11 12 13 13 12 12 10 9 6 5 4 4 4 4 5 6 6 7 8 9 9 10 11 11 12 12 13 13 14 15 16 17
10 11 12 13 14 14 13 12 12 11 9 7 5 2 2 5 8 11 12 13 11 11 9 7 7 6 5 4 3 3 4 5 6 6 6 7 7 8 9 10 11 11 12 13 14 15 16 17 17
11 12 12 13 13 13 12 10 10 10 9 6 4 1 2 5 7 10 12 11 10 9 7 7 7 6 5 4 3 2 2 4 4 5 6 7 8 9 9 10 11 12 13 14 15 16 17 18 19
11 12 13 13 13 12 11 11 9 9 8 6 4 0 3 5 6 8 9 9 9 8 8 8 8 6 5 3 2 2 2 3 4 5 6 7 8 8 9 10 12 13 13 14 15 17 18 19 19
11 12 13 13 12 11 11 11 8 8 7 6 3 2 3 4 5 7 8 9 9 8 8 8 8 6 4 3 2 2 2 3 4 5 6 6 7 8 9 11 12 13 14 16 16 17 18 19 20
12 12 12 12 12 11 10 9 6 6 5 4 2 2 3 4 5 6 8 9 9 8 8 7 7 5 4 3 2 2 2 3 4 4 5 6 7 9 10 12 14 15 16 17 18 19 20 21 22
12 12 12 11 11 10 9 8 6 5 3 3 2 1 1 3 5 6 7 8 9 8 8 7 6 6 4 3 3 2 2 3 4 5 6 7 8 10 12 14 16 17 18 19 20 21 22 22 23
12 12 12 13 12 9 9 8 6 5 4 3 2 1 1 2 3 5 6 7 8 8 7 7 6 5 5 4 3 2 3 4 5 6 7 8 9 11 14 16 17 18 19 20 21 23 23 24 25
13 13 13 13 12 10 7 6 5 5 4 4 3 3 1 2 3 4 5 6 7 8 7 7 6 5 4 3 3 4 5 6 6 7 9 10 12 14 16 18 19 20 21 23 24 24 25 25 26
15 14 14 14 13 10 7 6 6 6 6 5 4 4 3 3 4 5 6 7 7 8 7 6 6 5 5 5 5 6 7 7 8 9 11 12 14 16 18 19 21 23 24 25 26 26 26 27 28
16 15 15 15 13 12 10 8 8 7 7 7 6 6 5 5 5 6 7 7 7 7 7 7 7 7 7 8 8 8 9 9 10 12 13 15 16 18 20 22 23 25 25 26 27 28 28 29 30
15 15 16 15 14 12 11 8 9 9 8 8 8 8 7 7 7 8 8 9 9 9 9 9 9 9 10 10 10 10 11 12 13 14 16 17 19 20 22 24 25 26 27 28 28 29 30 30 31

GEFSSGP_500_meanwind_102.txt.gz
Wind_Speed
8 8 8 9 9 10 10 10 10 10 9 8 7 7 8 8 8 7 7 7 7 8 8 7 6 6 5 5 4 4 4 4 5 5 5 5 5 5 5 5 5 5 5 4 3 3 3 3 3
9 9 9 9 9 10 11 11 11 10 9 9 8 9 9 8 8 7 7 7 8 9 9 8 7 7 7 6 5 4 3 2 3 3 3 3 3 3 3 3 3 3 3 2 2 2 1 2 2
10 10 10 10 9 10 12 12 11 10 9 9 9 10 10 10 8 8 8 8 9 9 10 9 9 8 8 7 6 5 3 2 2 2 2 2 1 1 0 1 1 1 1 1 1 1 1 1 2
10 10 10 10 11 12 13 12 12 12 11 11 11 10 10 11 11 10 9 10 10 10 11 11 10 9 9 8 7 6 4 3 2 2 2 2 2 2 2 2 2 2 2 2 2 2 2 3 3
9 10 10 11 12 13 13 13 13 13 12 12 12 11 11 10 11 11 11 11 11 11 11 11 11 11 10 10 8 7 5 4 4 3 3 3 3 3 3 3 3 4 4 4 3 3 3 4 4
9 9 9 10 13 14 14 14 13 13 13 13 12 11 11 11 11 11 11 12 12 12 12 12 12 11 11 11 10 8 7 6 5 4 4 4 5 5 4 4 5 5 5 6 6 5 5 5 6
8 8 9 11 13 15 14 14 14 14 13 13 12 12 12 13 12 12 13 13 13 13 13 13 13 12 12 12 11 9 8 7 6 5 5 5 6 6 6 6 6 6 6 7 7 7 7 6 6
8 8 9 11 12 15 15 15 14 14 14 14 13 13 13 14 13 13 13 13 14 14 14 13 14 13 13 12 11 10 9 7 7 6 6 6 6 7 7 7 7 7 7 8 7 8 9 9 8
8 7 9 11 12 14 15 15 15 15 15 14 14 14 14 14 14 15 15 15 15 15 15 14 14 13 13 12 11 10 10 9 8 7 7 7 8 8 8 8 8 8 8 8 9 9 9 10 9
8 7 9 10 12 13 14 15 15 15 16 16 15 15 14 14 14 15 15 16 17 17 17 16 16 14 14 13 12 11 11 9 9 8 8 8 8 9 9 9 8 9 9 9 9 9 9 10 10
7 7 9 10 11 12 13 14 15 16 17 17 17 15 15 15 15 17 17 17 18 18 18 17 17 16 15 15 14 13 12 11 10 9 9 9 9 10 10 9 9 9 9 9 8 8 9 9 10
8 8 9 10 11 12 13 14 15 17 18 17 16 15 14 14 15 17 18 18 17 18 18 18 18 17 16 16 15 14 12 11 10 9 9 9 9 9 9 9 9 9 8 8 8 8 8 8 9
7 8 9 10 11 12 13 14 15 16 15 15 15 14 14 14 15 17 18 19 19 18 18 19 18 17 16 16 15 14 12 11 10 10 9 8 9 9 9 10 10 9 8 8 8 8 8 8 9
7 8 9 11 12 13 14 14 15 16 14 14 13 13 14 15 16 18 20 19 19 18 18 18 18 18 17 16 15 14 12 11 10 10 9 9 9 8 9 9 9 8 9 9 9 8 8 8 9
8 9 10 11 12 13 14 15 16 15 14 13 12 12 12 13 14 16 19 21 20 20 19 18 18 18 17 15 14 12 12 11 10 9 9 8 8 8 8 8 8 8 9 9 9 8 8 8 8
8 9 10 13 14 14 15 15 16 15 14 13 12 10 10 12 14 16 20 22 22 22 20 19 18 17 17 15 13 12 11 10 9 8 7 7 7 7 7 7 7 7 7 7 7 8 8 8 9
9 9 10 13 14 14 15 15 15 15 14 13 12 9 8 10 14 17 20 22 22 22 21 19 18 17 16 15 13 12 11 9 9 7 6 6 6 5 5 5 6 6 6 7 7 8 8 9 9
8 9 11 13 14 15 15 15 15 15 14 13 11 9 6 7 12 17 20 21 21 21 20 19 18 17 16 15 14 12 11 9 8 6 5 4 4 4 4 4 5 6 6 7 7 8 8 9 10
9 10 11 13 14 14 15 15 15 15 13 12 11 8 2 3 10 14 18 19 19 19 19 19 18 17 16 15 13 11 10 8 6 4 3 3 3 3 3 4 5 5 6 7 7 8 9 10 11
10 10 11 13 13 13 13 14 14 12 12 12 10 7 2 2 7 12 16 17 18 19 18 16 17 16 15 14 12 11 9 7 6 4 3 2 2 2 3 3 5 5 6 7 8 9 10 11 12
10 10 11 12 12 12 12 13 13 12 11 11 9 6 3 2 5 10 13 15 17 18 17 16 16 15 14 13 12 10 9 8 6 5 4 3 2 2 3 4 5 6 8 8 9 10 10 11 12
10 11 12 12 12 12 12 12 13 12 11 10 9 7 4 1 5 9 11 13 14 16 16 16 16 15 13 13 11 10 9 8 6 5 4 3 2 2 3 4 5 7 8 9 10 10 11 12 13
11 12 12 12 11 11 12 10 12 11 9 9 8 7 4 1 2 5 8 11 13 15 16 16 16 14 13 12 11 10 9 8 7 5 4 4 3 3 3 4 6 8 9 10 10 11 12 13 13
12 12 11 11 10 10 10 10 10 10 8 8 7 5 3 1 1 2 5 9 12 14 15 16 15 14 13 12 11 10 9 8 7 6 5 4 4 4 4 5 7 9 9 10 11 12 13 14 15
12 12 10 10 9 10 10 9 9 9 7 6 5 4 2 1 1 3 5 8 11 13 14 15 14 13 13 12 11 10 9 8 7 6 5 5 5 5 6 7 8 9 9 11 12 13 14 15 16
13 12 10 9 9 10 11 9 9 8 6 5 4 3 1 2 2 3 5 7 9 11 13 14 13 12 12 11 10 10 10 9 8 7 7 7 7 7 8 9 9 10 11 13 14 15 15 16 17
14 13 12 11 10 9 10 10 10 8 6 5 4 3 2 2 3 4 4 6 8 10 11 12 12 12 11 11 11 10 10 10 9 9 9 9 9 9 10 11 11 13 14 15 16 16 17 18 19
16 14 13 11 10 9 10 11 11 10 8 6 5 4 3 3 4 5 5 5 7 9 10 11 11 11 11 12 12 11 11 11 11 11 11 12 12 12 12 13 14 15 16 17 18 19 19 20 21
16 15 14 13 12 10 9 11 13 11 9 7 6 6 5 4 4 5 5 6 7 8 9 10 11 12 12 12 12 12 12 12 12 13 13 14 15 15 16 16 17 18 19 19 20 20 21 22 23
17 16 15 14 14 13 11 11 13 12 11 9 8 7 7 6 6 6 6 7 8 9 10 11 12 13 13 13 14 14 14 14 15 15 16 17 18 18 19 19 20 20 21 22 22 22 23 23 24

GEFSSGP_500_meanwind_108.txt.gz
Wind_Speed
6 6 6 6 5 6 6 5 9 11 10 10 9 9 11 11 12 10 10 9 8 8 8 8 8 7 6 4 4 3 3 2 2 2 2 2 2 2 1 1 1 1 1 1 1 1 1 1 1
6 6 5 5 6 11 10 7 11 13 11 11 10 11 13 13 13 13 13 11 11 10 10 10 9 8 7 6 5 4 4 3 3 2 2 2 2 1 1 1 1 1 1 1 1 1 1 1 1
6 6 5 4 5 7 10 13 14 15 12 11 12 12 13 12 13 14 13 13 12 12 11 11 11 9 8 7 6 6 5 4 4 3 3 2 2 2 2 2 2 2 3 3 2 2 2 2 2
5 4 4 5 5 5 11 15 15 13 12 11 12 13 12 12 13 13 14 14 12 13 13 12 12 11 10 9 8 7 6 5 5 5 4 3 3 3 3 3 3 3 4 4 4 4 4 4 4
4 3 6 6 4 9 15 16 14 12 12 12 13 15 12 13 13 14 14 15 14 14 14 14 13 13 11 10 10 9 8 7 6 6 5 5 4 4 4 4 4 5 5 5 5 5 6 6 5
4 1 4 7 8 13 18 18 13 12 14 14 14 16 15 14 14 15 15 15 15 14 15 15 15 14 13 12 11 10 10 9 8 7 6 6 6 5 5 5 5 6 6 6 7 7 6 7 7
3 1 1 3 9 15 18 19 15 14 15 15 14 16 16 15 15 16 17 16 15 16 17 16 16 15 14 13 12 12 11 10 9 9 8 8 7 7 7 6 7 7 7 7 8 8 8 8 8
3 1 2 2 10 14 19 19 16 15 16 15 17 18 17 16 16 17 17 18 17 17 18 18 17 16 16 14 13 13 13 12 11 10 10 9 9 8 7 8 8 8 8 8 8 8 9 10 10
1 1 2 4 10 13 17 18 16 17 17 17 18 18 16 16 18 19 19 19 19 18 18 18 18 17 17 16 14 14 13 12 11 10 10 9 8 8 9 9 9 9 9 8 9 9 9 10 10
2 2 3 10 13 13 15 17 15 16 17 18 20 18 18 18 19 20 20 20 20 20 19 19 18 18 17 16 15 14 13 13 12 11 11 10 9 9 9 9 9 9 9 9 9 8 8 9 10
4 6 8 11 12 13 13 14 15 17 18 19 20 19 18 18 19 20 22 21 20 20 21 20 19 18 17 15 15 15 15 14 13 12 11 10 9 8 8 9 9 9 9 9 8 7 8 8 8
6 7 9 11 12 13 13 14 15 17 19 20 20 20 19 18 19 20 20 20 21 21 22 21 19 18 16 16 17 17 16 14 13 11 10 10 9 9 8 8 8 8 7 6 6 6 7 7 8
8 8 10 11 12 14 15 15 15 16 18 19 20 19 18 17 18 18 19 22 20 21 21 20 20 17 17 17 17 17 15 13 12 11 10 10 10 9 8 8 7 6 6 6 6 6 6 6 6
6 8 9 10 11 14 17 17 16 17 19 19 19 18 18 17 16 16 18 19 21 21 20 20 20 18 17 17 17 17 15 13 11 10 10 10 9 8 7 6 6 5 5 6 6 6 5 5 5
5 6 7 10 13 15 18 18 17 18 20 20 19 17 17 16 15 15 17 19 20 21 22 21 20 19 18 17 16 15 15 13 12 11 10 9 8 7 7 6 6 6 6 6 6 5 5 4 4
4 7 10 12 13 15 18 19 20 19 20 21 21 18 16 15 14 14 15 17 19 20 21 21 20 19 18 16 16 15 15 13 12 11 9 8 7 7 6 5 5 5 5 5 5 4 4 4 5
6 11 12 12 14 17 19 20 20 19 21 21 21 19 17 15 14 13 14 16 17 18 19 19 19 18 17 17 16 15 14 13 12 10 8 6 5 4 4 3 3 3 3 4 4 4 4 5 5
8 11 12 13 15 18 19 20 20 20 21 21 20 19 17 14 13 12 13 16 17 19 19 19 18 18 17 16 15 13 12 11 9 7 6 4 4 3 2 2 2 3 3 4 5 5 5 5 6
9 10 12 14 16 18 19 18 19 19 20 20 19 18 16 13 9 8 11 15 16 18 18 17 17 17 16 15 13 12 11 9 7 6 5 4 4 3 1 1 2 3 4 5 6 6 6 6 7
11 12 13 16 17 17 17 16 17 18 19 18 19 18 16 12 7 5 6 10 14 16 16 16 16 16 16 14 13 12 11 9 7 6 5 4 3 2 1 1 2 3 4 5 5 6 7 8 8
10 13 15 16 16 16 15 14 17 18 18 17 17 16 15 12 7 5 6 8 11 14 15 16 16 16 16 15 13 12 11 9 7 6 5 4 3 2 2 1 2 3 4 5 6 7 8 8 8
13 14 15 14 13 13 14 14 15 17 18 16 15 15 13 11 8 5 4 7 10 13 14 16 15 15 15 14 14 13 11 9 7 6 5 5 4 3 3 2 2 3 4 5 7 8 9 9 9
15 15 14 13 12 14 13 11 15 16 18 16 15 14 13 11 7 4 3 4 8 10 12 13 15 14 14 13 12 11 10 8 7 7 6 5 5 4 3 3 3 4 6 6 8 9 10 10 10
15 15 13 12 15 16 9 8 14 15 17 16 15 13 12 10 7 4 3 4 7 9 10 11 13 13 12 12 11 10 10 9 8 7 7 6 5 5 5 5 5 6 7 8 9 10 11 11 12
15 15 14 14 16 15 10 9 12 13 16 16 13 12 10 8 5 4 2 3 5 7 9 10 12 13 12 11 11 11 10 10 8 8 8 7 6 6 7 7 8 8 9 10 11 12 13 13 14
16 14 15 18 17 16 14 11 10 11 14 14 13 11 9 7 5 3 2 1 3 5 7 8 10 12 12 12 12 12 11 10 9 9 8 7 7 8 9 10 11 11 12 12 13 14 15 16 16
16 16 16 18 16 16 17 12 8 10 12 13 12 10 9 7 5 3 2 2 3 5 7 8 10 11 12 12 13 13 11 11 10 10 9 10 10 11 12 12 13 14 15 15 16 17 17 17 18
18 17 17 17 16 14 14 15 14 8 13 15 13 11 8 7 6 4 4 3 4 5 7 8 10 12 12 13 13 12 12 12 11 11 11 12 13 13 14 15 16 17 18 18 19 19 19 20 20
19 19 19 18 16 15 16 17 15 13 13 15 14 12 9 7 6 5 5 5 5 5 7 9 10 10 11 12 12 12 12 12 12 13 13 14 15 16 17 17 18 19 20 21 21 21 21 22 22
22 20 19 19 17 16 15 18 16 17 14 13 13 12 10 9 7 7 6 6 6 6 7 9 10 11 11 12 12 13 13 14 14 15 16 17 18 19 19 20 21 21 22 23 24 23 24 24 24

GEFSSGP_500_meanwind_114.txt.gz
Wind_Speed
4 3 3 3 4 4 4 6 8 10 11 10 10 11 12 10 8 6 7 5 5 5 5 5 5 5 4 4 3 1 1 1 2 2 2 2 2 3 3 3 3 3 3 3 3 2 2 2 2
4 4 3 3 5 4 5 8 11 13 15 15 12 11 12 11 8 6 7 7 7 6 6 6 7 6 5 5 4 3 1 2 2 2 3 3 3 3 3 4 4 4 4 4 4 3 3 2 1
5 4 3 4 4 6 6 9 12 16 18 16 14 14 14 11 8 7 7 6 7 7 7 7 8 8 7 6 5 4 3 2 3 3 3 4 4 4 4 4 5 5 5 5 5 5 4 3 3
5 4 3 3 4 5 7 9 13 17 19 18 17 16 14 11 9 7 6 6 7 8 8 9 9 9 9 8 7 6 4 4 4 4 4 5 5 5 5 6 6 6 6 6 6 6 6 5 5
6 4 3 4 6 6 7 10 13 17 19 19 18 18 15 11 9 8 7 8 9 10 10 10 10 10 10 10 9 7 6 5 5 5 5 6 6 6 7 7 7 7 7 7 7 7 7 6 6
5 4 4 5 7 8 8 11 17 20 22 22 20 18 15 12 12 10 9 10 11 12 12 11 12 12 11 11 10 9 7 7 6 6 6 7 7 7 8 8 8 8 8 8 8 8 7 7 7
6 5 6 8 7 7 9 14 19 22 24 21 20 18 16 14 13 11 11 11 12 13 13 14 14 13 13 12 12 10 9 8 8 7 7 8 8 9 9 9 9 9 9 9 9 8 8 8 8
7 7 8 7 7 8 11 15 19 21 21 20 19 18 17 15 14 13 12 13 13 13 15 15 16 15 15 14 12 11 11 10 9 8 9 8 9 10 9 9 9 9 10 10 9 9 9 9 9
8 8 8 8 8 9 13 16 19 19 20 20 19 19 18 17 14 14 13 13 14 14 15 15 15 16 16 15 13 12 11 11 10 9 9 10 10 10 10 10 9 10 10 10 10 10 10 10 9
9 9 9 8 9 10 12 17 19 19 18 19 19 20 18 19 16 14 14 15 16 17 17 16 17 16 16 15 14 14 12 12 11 10 10 10 9 9 10 9 9 10 9 9 9 10 9 9 8
10 10 10 9 9 10 11 14 16 16 17 17 19 19 20 19 17 16 15 16 18 18 18 18 19 19 18 16 15 15 14 12 11 11 10 10 10 10 10 9 8 8 8 8 8 8 8 8 7
11 11 11 9 9 10 11 12 14 15 17 17 19 21 19 17 16 16 15 16 18 18 19 19 20 19 18 17 16 15 14 13 11 11 11 10 10 10 9 8 7 7 6 6 6 7 7 7 7
11 11 10 8 8 9 10 11 13 14 16 17 19 20 20 19 18 16 13 14 17 18 19 19 19 19 19 18 17 16 15 14 13 12 11 11 10 8 7 7 7 6 5 5 5 6 7 7 7
10 10 9 9 9 9 9 11 13 14 16 17 19 20 19 19 18 15 13 13 14 15 17 17 19 20 19 18 17 16 15 14 13 12 10 9 8 7 7 6 5 5 4 4 4 4 5 6 6
10 8 7 8 8 9 11 11 13 15 16 17 19 19 19 19 17 15 14 13 13 14 15 17 19 20 19 19 18 16 14 13 12 11 10 8 8 7 6 5 4 3 3 3 3 4 4 4 4
9 8 5 6 8 9 11 10 12 15 15 17 18 18 18 18 17 15 13 12 13 14 16 17 17 20 19 19 17 15 14 13 12 11 10 9 7 6 5 4 3 3 2 2 2 2 2 3 4
8 7 6 7 10 12 12 12 13 14 15 16 18 18 18 17 16 13 11 10 12 14 17 16 17 18 18 17 15 15 14 13 12 10 9 8 7 5 5 5 4 3 3 2 1 1 1 2 3
8 8 7 8 12 14 15 15 14 14 15 15 17 18 18 15 15 13 10 8 10 12 15 16 18 19 18 17 16 15 14 13 12 10 9 8 7 6 6 5 4 3 3 2 0 0 1 1 2
9 9 9 9 13 16 17 16 15 15 15 16 16 16 16 15 13 12 9 6 7 9 13 16 18 19 19 18 17 15 14 14 13 10 10 10 8 7 6 5 4 4 3 2 1 1 1 1 2
10 9 9 10 14 17 17 16 15 15 15 15 14 13 14 15 13 11 8 5 6 7 11 15 17 18 18 17 17 16 15 14 13 11 11 10 9 7 6 5 5 5 4 2 2 1 1 2 2
10 10 10 12 15 17 19 18 16 14 14 14 12 11 11 12 12 9 7 3 5 7 10 13 15 17 17 17 17 15 14 14 13 12 11 11 9 8 7 6 5 5 4 3 1 1 1 2 2
11 11 12 15 17 18 19 20 17 15 13 11 10 10 10 9 10 8 5 2 3 6 10 12 13 15 16 17 17 16 14 14 14 13 13 12 10 9 8 6 5 5 4 3 1 0 1 2 3
12 12 14 16 17 18 19 20 18 15 12 9 8 8 8 8 8 8 6 3 2 6 9 10 13 13 15 16 16 16 16 16 15 14 13 12 11 10 8 6 6 5 4 3 2 1 2 3 3
14 15 17 18 18 19 19 19 17 15 10 8 6 6 7 7 7 7 6 4 3 5 7 9 12 13 13 14 16 17 17 16 16 15 14 12 11 10 8 7 7 6 5 3 2 2 3 3 4
16 16 18 19 18 19 19 18 14 12 8 6 6 5 5 6 7 6 4 3 3 5 7 9 11 12 12 13 15 16 16 16 15 15 14 13 11 10 9 8 8 7 6 5 4 5 5 5 5
16 17 18 19 19 18 18 16 13 10 7 5 5 4 3 4 5 5 3 2 2 4 7 9 11 12 13 13 14 15 15 15 15 15 14 13 12 11 10 10 9 8 8 7 7 7 7 7 8
18 19 19 20 20 19 17 15 11 9 7 4 3 2 3 3 4 4 2 2 2 4 7 9 10 11 12 14 14 14 15 15 15 15 14 13 13 12 12 11 11 10 10 10 10 10 10 10 11
19 19 19 20 21 20 18 15 12 10 5 4 4 2 1 1 2 2 1 1 2 3 6 8 10 11 12 13 14 14 15 15 15 15 14 14 13 13 13 12 12 12 12 13 13 13 13 14 14
20 20 20 21 20 21 20 16 13 10 7 5 3 1 1 1 1 1 1 1 2 3 4 7 8 9 10 12 14 14 15 15 15 15 15 15 15 14 14 14 14 14 15 15 15 16 16 16 16
22 22 22 22 21 20 20 19 14 12 9 7 5 4 3 2 2 2 3 3 3 3 4 5 7 8 9 11 12 14 15 16 16 15 15 16 16 16 16 16 16 17 17 17 18 19 19 19 19